Time,TemperatureF,DewpointF,PressureIn,WindDirection,WindDirectionDegrees,WindSpeedMPH,WindSpeedGustMPH,Humidity,HourlyPrecipIn,Conditions,Clouds,dailyrainin,SoftwareType,DateUTC
2013-02-06 00:01:00,67.0,-99.9,29.90,ESE,123,15.0,17.0,-999,-99.99,,,-99.99,,2013-02-06 06:01:00,
2013-02-06 00:11:00,67.0,-99.9,29.91,SE,131,12.0,16.0,-999,-99.99,,,-99.99,,2013-02-06 06:11:00,
2013-02-06 00:22:00,67.0,-99.9,29.92,SE,129,11.0,12.0,-999,-99.99,,,-99.99,,2013-02-06 06:22:00,
2013-02-06 00:32:00,67.0,-99.9,29.92,SE,136,11.0,11.0,-999,-99.99,,,-99.99,,2013-02-06 06:32:00,
2013-02-06 00:42:00,67.0,-99.9,29.92,SSE,149,10.0,11.0,-999,-99.99,,,-99.99,,2013-02-06 06:42:00,
2013-02-06 00:52:00,67.0,-99.9,29.94,South,173,10.0,11.0,-999,-99.99,,,-99.99,,2013-02-06 06:52:00,
2013-02-06 01:02:00,67.0,-99.9,29.95,SSW,197,10.0,11.0,-999,-99.99,,,-99.99,,2013-02-06 07:02:00,
2013-02-06 01:11:00,67.0,-99.9,29.96,SSW,202,10.0,11.0,-999,-99.99,,,-99.99,,2013-02-06 07:11:00,
2013-02-06 01:22:00,67.0,-99.9,29.98,SSW,202,13.0,13.0,-999,-99.99,,,-99.99,,2013-02-06 07:22:00,
2013-02-06 01:32:00,68.0,-99.9,29.99,South,181,10.0,13.0,-999,-99.99,,,-99.99,,2013-02-06 07:32:00,
2013-02-06 01:42:00,68.0,-99.9,29.98,SE,135,10.0,10.0,-999,-99.99,,,-99.99,,2013-02-06 07:42:00,
2013-02-06 01:52:00,67.0,-99.9,29.93,ESE,108,20.0,21.0,-999,-99.99,,,-99.99,,2013-02-06 07:52:00,
2013-02-06 02:01:00,67.0,-99.9,29.91,SE,139,14.0,16.0,-999,-99.99,,,-99.99,,2013-02-06 08:01:00,
2013-02-06 02:11:00,68.0,-99.9,29.92,SE,141,13.0,16.0,-999,-99.99,,,-99.99,,2013-02-06 08:11:00,
2013-02-06 02:21:00,67.0,-99.9,29.92,SE,128,8.0,9.0,-999,-99.99,,,-99.99,,2013-02-06 08:21:00,
2013-02-06 02:32:00,67.0,-99.9,29.92,ESE,115,9.0,9.0,-999,-99.99,,,-99.99,,2013-02-06 08:32:00,
2013-02-06 02:42:00,67.0,-99.9,29.92,ESE,117,10.0,11.0,-999,-99.99,,,-99.99,,2013-02-06 08:42:00,
2013-02-06 02:53:00,67.0,-99.9,29.92,ESE,111,9.0,10.0,-999,-99.99,,,-99.99,,2013-02-06 08:53:00,
2013-02-06 03:02:00,67.0,-99.9,29.92,ENE,73,6.0,8.0,-999,-99.99,,,-99.99,,2013-02-06 09:02:00,
2013-02-06 03:11:00,66.0,-99.9,29.92,NE,53,6.0,7.0,-999,-99.99,,,-99.99,,2013-02-06 09:11:00,
2013-02-06 03:22:00,67.0,-99.9,29.93,ENE,65,7.0,7.0,-999,-99.99,,,-99.99,,2013-02-06 09:22:00,
2013-02-06 03:32:00,66.0,-99.9,29.92,NE,56,7.0,8.0,-999,-99.99,,,-99.99,,2013-02-06 09:32:00,
2013-02-06 03:42:00,66.0,-99.9,29.92,NE,50,9.0,9.0,-999,-99.99,,,-99.99,,2013-02-06 09:42:00,
2013-02-06 03:52:00,66.0,-99.9,29.91,NE,46,9.0,10.0,-999,-99.99,,,-99.99,,2013-02-06 09:52:00,
2013-02-06 04:01:00,65.0,-99.9,29.92,NNE,33,10.0,11.0,-999,-99.99,,,-99.99,,2013-02-06 10:01:00,
2013-02-06 04:11:00,65.0,-99.9,29.91,NE,37,10.0,11.0,-999,-99.99,,,-99.99,,2013-02-06 10:11:00,
2013-02-06 04:22:00,65.0,-99.9,29.91,NE,45,12.0,13.0,-999,-99.99,,,-99.99,,2013-02-06 10:22:00,
2013-02-06 04:32:00,65.0,-99.9,29.91,NE,51,11.0,12.0,-999,-99.99,,,-99.99,,2013-02-06 10:32:00,
2013-02-06 04:42:00,65.0,-99.9,29.91,NE,56,11.0,13.0,-999,-99.99,,,-99.99,,2013-02-06 10:42:00,
2013-02-06 04:52:00,65.0,-99.9,29.92,ENE,64,11.0,12.0,-999,-99.99,,,-99.99,,2013-02-06 10:52:00,
2013-02-06 05:02:00,65.0,-99.9,29.92,ENE,66,9.0,10.0,-999,-99.99,,,-99.99,,2013-02-06 11:02:00,
2013-02-06 05:11:00,65.0,-99.9,29.92,ENE,74,9.0,10.0,-999,-99.99,,,-99.99,,2013-02-06 11:11:00,
2013-02-06 05:22:00,65.0,-99.9,29.91,East,83,9.0,9.0,-999,-99.99,,,-99.99,,2013-02-06 11:22:00,
2013-02-06 05:33:00,65.0,-99.9,29.92,East,82,9.0,10.0,-999,-99.99,,,-99.99,,2013-02-06 11:33:00,
2013-02-06 05:42:00,65.0,-99.9,29.92,East,79,10.0,11.0,-999,-99.99,,,-99.99,,2013-02-06 11:42:00,
2013-02-06 05:53:00,65.0,-99.9,29.92,ENE,78,9.0,10.0,-999,-99.99,,,-99.99,,2013-02-06 11:53:00,
2013-02-06 06:02:00,65.0,-99.9,29.92,ENE,74,9.0,10.0,-999,-99.99,,,-99.99,,2013-02-06 12:02:00,
2013-02-06 06:12:00,65.0,-99.9,29.92,ENE,68,9.0,9.0,-999,-99.99,,,-99.99,,2013-02-06 12:12:00,
2013-02-06 06:22:00,66.0,-99.9,29.93,ENE,60,9.0,9.0,-999,-99.99,,,-99.99,,2013-02-06 12:22:00,
2013-02-06 06:32:00,66.0,-99.9,29.93,ENE,57,10.0,10.0,-999,-99.99,,,-99.99,,2013-02-06 12:32:00,
2013-02-06 06:42:00,66.0,-99.9,29.93,NE,45,8.0,10.0,-999,-99.99,,,-99.99,,2013-02-06 12:42:00,
2013-02-06 06:52:00,65.0,-99.9,29.93,NE,53,11.0,12.0,-999,-99.99,,,-99.99,,2013-02-06 12:52:00,
2013-02-06 07:02:00,66.0,-99.9,29.92,ENE,58,12.0,13.0,-999,-99.99,,,-99.99,,2013-02-06 13:02:00,
2013-02-06 07:12:00,66.0,-99.9,29.92,ENE,57,12.0,13.0,-999,-99.99,,,-99.99,,2013-02-06 13:12:00,
2013-02-06 07:22:00,65.0,-99.9,29.92,ENE,64,12.0,14.0,-999,-99.99,,,-99.99,,2013-02-06 13:22:00,
2013-02-06 07:32:00,66.0,-99.9,29.92,ENE,65,10.0,13.0,-999,-99.99,,,-99.99,,2013-02-06 13:32:00,
2013-02-06 07:42:00,65.0,-99.9,29.92,ENE,64,10.0,11.0,-999,-99.99,,,-99.99,,2013-02-06 13:42:00,
2013-02-06 07:52:00,65.0,-99.9,29.92,ENE,68,12.0,13.0,-999,-99.99,,,-99.99,,2013-02-06 13:52:00,
2013-02-06 08:02:00,66.0,-99.9,29.91,ENE,76,13.0,14.0,-999,-99.99,,,-99.99,,2013-02-06 14:02:00,
2013-02-06 08:11:00,66.0,-99.9,29.91,ENE,74,13.0,14.0,-999,-99.99,,,-99.99,,2013-02-06 14:11:00,
2013-02-06 08:22:00,66.0,-99.9,29.91,ENE,74,13.0,14.0,-999,-99.99,,,-99.99,,2013-02-06 14:22:00,
2013-02-06 08:32:00,66.0,-99.9,29.91,ENE,74,13.0,14.0,-999,-99.99,,,-99.99,,2013-02-06 14:32:00,
2013-02-06 08:42:00,66.0,-99.9,29.91,ENE,77,12.0,13.0,-999,-99.99,,,-99.99,,2013-02-06 14:42:00,
2013-02-06 08:52:00,66.0,-99.9,29.91,ENE,77,12.0,13.0,-999,-99.99,,,-99.99,,2013-02-06 14:52:00,
2013-02-06 09:02:00,66.0,-99.9,29.91,ENE,77,12.0,13.0,-999,-99.99,,,-99.99,,2013-02-06 15:02:00,
2013-02-06 09:11:00,66.0,-99.9,29.91,East,84,12.0,13.0,-999,-99.99,,,-99.99,,2013-02-06 15:11:00,
2013-02-06 09:21:00,66.0,-99.9,29.91,East,84,12.0,13.0,-999,-99.99,,,-99.99,,2013-02-06 15:21:00,
2013-02-06 09:32:00,66.0,-99.9,29.91,East,82,8.0,9.0,-999,-99.99,,,-99.99,,2013-02-06 15:32:00,
2013-02-06 09:42:00,67.0,-99.9,29.90,ESE,113,13.0,15.0,-999,-99.99,,,-99.99,,2013-02-06 15:42:00,
2013-02-06 09:52:00,67.0,-99.9,29.90,ESE,107,18.0,19.0,-999,-99.99,,,-99.99,,2013-02-06 15:52:00,
2013-02-06 10:01:00,67.0,-99.9,29.90,ESE,115,16.0,18.0,-999,-99.99,,,-99.99,,2013-02-06 16:01:00,
2013-02-06 10:11:00,67.0,-99.9,29.90,ESE,111,18.0,20.0,-999,-99.99,,,-99.99,,2013-02-06 16:11:00,
2013-02-06 10:22:00,67.0,-99.9,29.91,SE,132,15.0,18.0,-999,-99.99,,,-99.99,,2013-02-06 16:22:00,
2013-02-06 10:32:00,67.0,-99.9,29.91,SE,129,18.0,19.0,-999,-99.99,,,-99.99,,2013-02-06 16:32:00,
2013-02-06 10:42:00,67.0,-99.9,29.91,SE,126,17.0,19.0,-999,-99.99,,,-99.99,,2013-02-06 16:42:00,
2013-02-06 10:52:00,68.0,-99.9,29.91,SE,136,15.0,19.0,-999,-99.99,,,-99.99,,2013-02-06 16:52:00,
2013-02-06 11:02:00,67.0,-99.9,29.90,SE,139,13.0,17.0,-999,-99.99,,,-99.99,,2013-02-06 17:02:00,
2013-02-06 11:12:00,68.0,-99.9,29.90,SSE,161,11.0,15.0,-999,-99.99,,,-99.99,,2013-02-06 17:12:00,
2013-02-06 11:22:00,68.0,-99.9,29.90,SSE,163,11.0,14.0,-999,-99.99,,,-99.99,,2013-02-06 17:22:00,
2013-02-06 11:33:00,68.0,-99.9,29.90,South,170,8.0,10.0,-999,-99.99,,,-99.99,,2013-02-06 17:33:00,
2013-02-06 11:42:00,68.0,-99.9,29.90,SSE,167,7.0,8.0,-999,-99.99,,,-99.99,,2013-02-06 17:42:00,
2013-02-06 11:53:00,67.0,-99.9,29.89,SSE,156,10.0,12.0,-999,-99.99,,,-99.99,,2013-02-06 17:53:00,
2013-02-06 12:02:00,68.0,-99.9,29.88,SSE,153,10.0,14.0,-999,-99.99,,,-99.99,,2013-02-06 18:02:00,
2013-02-06 12:12:00,68.0,-99.9,29.88,SSE,153,9.0,12.0,-999,-99.99,,,-99.99,,2013-02-06 18:12:00,
2013-02-06 12:23:00,67.0,-99.9,29.87,SE,126,9.0,11.0,-999,-99.99,,,-99.99,,2013-02-06 18:23:00,
2013-02-06 12:33:00,67.0,-99.9,29.86,SE,139,17.0,19.0,-999,-99.99,,,-99.99,,2013-02-06 18:33:00,
2013-02-06 12:42:00,67.0,-99.9,29.85,SE,144,20.0,21.0,-999,-99.99,,,-99.99,,2013-02-06 18:42:00,
2013-02-06 12:52:00,67.0,-99.9,29.84,SSE,155,16.0,18.0,-999,-99.99,,,-99.99,,2013-02-06 18:52:00,
2013-02-06 13:02:00,67.0,-99.9,29.85,SW,221,7.0,12.0,-999,-99.99,,,-99.99,,2013-02-06 19:02:00,
2013-02-06 13:11:00,67.0,-99.9,29.85,WNW,294,8.0,10.0,-999,-99.99,,,-99.99,,2013-02-06 19:11:00,
2013-02-06 13:22:00,66.0,-99.9,29.85,North,360,20.0,24.0,-999,-99.99,,,-99.99,,2013-02-06 19:22:00,
2013-02-06 13:32:00,66.0,-99.9,29.85,NNE,22,29.0,32.0,-999,-99.99,,,-99.99,,2013-02-06 19:32:00,
2013-02-06 13:42:00,64.0,-99.9,29.84,North,3,24.0,29.0,-999,-99.99,,,-99.99,,2013-02-06 19:42:00,
2013-02-06 13:52:00,64.0,-99.9,29.84,North,1,25.0,31.0,-999,-99.99,,,-99.99,,2013-02-06 19:52:00,
2013-02-06 14:01:00,63.0,-99.9,29.85,North,2,22.0,27.0,-999,-99.99,,,-99.99,,2013-02-06 20:01:00,
2013-02-06 14:11:00,63.0,-99.9,29.84,North,2,19.0,23.0,-999,-99.99,,,-99.99,,2013-02-06 20:11:00,
2013-02-06 14:22:00,63.0,-99.9,29.85,North,9,18.0,21.0,-999,-99.99,,,-99.99,,2013-02-06 20:22:00,
2013-02-06 14:32:00,63.0,-99.9,29.84,NNE,17,20.0,26.0,-999,-99.99,,,-99.99,,2013-02-06 20:32:00,
2013-02-06 14:42:00,63.0,-99.9,29.84,NNE,20,19.0,23.0,-999,-99.99,,,-99.99,,2013-02-06 20:42:00,
2013-02-06 14:52:00,63.0,-99.9,29.83,NNE,14,24.0,28.0,-999,-99.99,,,-99.99,,2013-02-06 20:52:00,
2013-02-06 15:02:00,63.0,-99.9,29.82,NNE,18,24.0,27.0,-999,-99.99,,,-99.99,,2013-02-06 21:02:00,
2013-02-06 15:11:00,64.0,-99.9,29.82,NNE,13,21.0,25.0,-999,-99.99,,,-99.99,,2013-02-06 21:11:00,
2013-02-06 15:22:00,64.0,-99.9,29.83,NNE,17,19.0,22.0,-999,-99.99,,,-99.99,,2013-02-06 21:22:00,
2013-02-06 15:32:00,64.0,-99.9,29.82,NNE,14,21.0,26.0,-999,-99.99,,,-99.99,,2013-02-06 21:32:00,
2013-02-06 15:42:00,64.0,-99.9,29.81,NNE,13,24.0,26.0,-999,-99.99,,,-99.99,,2013-02-06 21:42:00,
2013-02-06 15:52:00,64.0,-99.9,29.80,NNE,16,23.0,26.0,-999,-99.99,,,-99.99,,2013-02-06 21:52:00,
2013-02-06 16:01:00,64.0,-99.9,29.80,NNE,24,21.0,26.0,-999,-99.99,,,-99.99,,2013-02-06 22:01:00,
2013-02-06 16:11:00,64.0,-99.9,29.80,NNE,26,20.0,24.0,-999,-99.99,,,-99.99,,2013-02-06 22:11:00,
2013-02-06 16:22:00,64.0,-99.9,29.80,NNE,30,19.0,23.0,-999,-99.99,,,-99.99,,2013-02-06 22:22:00,
2013-02-06 16:32:00,64.0,-99.9,29.80,NNE,32,20.0,23.0,-999,-99.99,,,-99.99,,2013-02-06 22:32:00,
2013-02-06 16:42:00,64.0,-99.9,29.80,NNE,31,20.0,22.0,-999,-99.99,,,-99.99,,2013-02-06 22:42:00,
2013-02-06 16:52:00,64.0,-99.9,29.80,NE,34,19.0,22.0,-999,-99.99,,,-99.99,,2013-02-06 22:52:00,
2013-02-06 17:01:00,64.0,-99.9,29.80,NE,35,18.0,21.0,-999,-99.99,,,-99.99,,2013-02-06 23:01:00,
2013-02-06 17:11:00,64.0,-99.9,29.80,NNE,33,17.0,20.0,-999,-99.99,,,-99.99,,2013-02-06 23:11:00,
2013-02-06 17:21:00,64.0,-99.9,29.80,NE,34,18.0,21.0,-999,-99.99,,,-99.99,,2013-02-06 23:21:00,
2013-02-06 17:32:00,64.0,-99.9,29.80,NE,36,19.0,22.0,-999,-99.99,,,-99.99,,2013-02-06 23:32:00,
2013-02-06 17:42:00,64.0,-99.9,29.81,NE,38,17.0,20.0,-999,-99.99,,,-99.99,,2013-02-06 23:42:00,
2013-02-06 17:52:00,64.0,-99.9,29.82,NE,39,17.0,21.0,-999,-99.99,,,-99.99,,2013-02-06 23:52:00,
2013-02-06 18:02:00,64.0,-99.9,29.82,NE,40,17.0,21.0,-999,-99.99,,,-99.99,,2013-02-07 00:02:00,
2013-02-06 18:11:00,64.0,-99.9,29.83,NE,37,16.0,20.0,-999,-99.99,,,-99.99,,2013-02-07 00:11:00,
2013-02-06 18:22:00,64.0,-99.9,29.83,NE,40,17.0,20.0,-999,-99.99,,,-99.99,,2013-02-07 00:22:00,
2013-02-06 18:32:00,64.0,-99.9,29.83,NE,38,15.0,18.0,-999,-99.99,,,-99.99,,2013-02-07 00:32:00,
2013-02-06 18:42:00,64.0,-99.9,29.83,NE,40,15.0,18.0,-999,-99.99,,,-99.99,,2013-02-07 00:42:00,
2013-02-06 18:52:00,64.0,-99.9,29.83,NE,45,17.0,19.0,-999,-99.99,,,-99.99,,2013-02-07 00:52:00,
2013-02-06 19:01:00,65.0,-99.9,29.84,NE,39,16.0,18.0,-999,-99.99,,,-99.99,,2013-02-07 01:01:00,
2013-02-06 19:11:00,65.0,-99.9,29.84,NE,42,15.0,17.0,-999,-99.99,,,-99.99,,2013-02-07 01:11:00,
2013-02-06 19:21:00,65.0,-99.9,29.85,NE,41,14.0,18.0,-999,-99.99,,,-99.99,,2013-02-07 01:21:00,
2013-02-06 19:32:00,64.0,-99.9,29.85,NE,37,13.0,16.0,-999,-99.99,,,-99.99,,2013-02-07 01:32:00,
2013-02-06 19:42:00,64.0,-99.9,29.85,NE,39,13.0,15.0,-999,-99.99,,,-99.99,,2013-02-07 01:42:00,
2013-02-06 19:52:00,64.0,-99.9,29.85,NE,39,13.0,16.0,-999,-99.99,,,-99.99,,2013-02-07 01:52:00,
2013-02-06 20:02:00,64.0,-99.9,29.85,NNE,30,13.0,15.0,-999,-99.99,,,-99.99,,2013-02-07 02:02:00,
2013-02-06 20:12:00,64.0,-99.9,29.85,NE,34,13.0,15.0,-999,-99.99,,,-99.99,,2013-02-07 02:12:00,
2013-02-06 20:21:00,64.0,-99.9,29.85,NE,41,14.0,17.0,-999,-99.99,,,-99.99,,2013-02-07 02:21:00,
2013-02-06 20:32:00,64.0,-99.9,29.86,NE,39,14.0,15.0,-999,-99.99,,,-99.99,,2013-02-07 02:32:00,
2013-02-06 20:42:00,64.0,-99.9,29.86,NE,39,14.0,15.0,-999,-99.99,,,-99.99,,2013-02-07 02:42:00,
2013-02-06 20:52:00,64.0,-99.9,29.86,NE,39,14.0,15.0,-999,-99.99,,,-99.99,,2013-02-07 02:52:00,
2013-02-06 21:02:00,65.0,-99.9,29.87,NNE,33,15.0,17.0,-999,-99.99,,,-99.99,,2013-02-07 03:02:00,
2013-02-06 21:11:00,65.0,-99.9,29.87,NE,35,15.0,18.0,-999,-99.99,,,-99.99,,2013-02-07 03:11:00,
2013-02-06 21:22:00,65.0,-99.9,29.87,NE,36,15.0,17.0,-999,-99.99,,,-99.99,,2013-02-07 03:22:00,
2013-02-06 21:32:00,64.0,-99.9,29.87,NE,43,16.0,18.0,-999,-99.99,,,-99.99,,2013-02-07 03:32:00,
2013-02-06 21:42:00,64.0,-99.9,29.87,NE,43,16.0,19.0,-999,-99.99,,,-99.99,,2013-02-07 03:42:00,
2013-02-06 21:52:00,64.0,-99.9,29.88,NE,40,14.0,16.0,-999,-99.99,,,-99.99,,2013-02-07 03:52:00,
2013-02-06 22:01:00,64.0,-99.9,29.87,NE,35,15.0,17.0,-999,-99.99,,,-99.99,,2013-02-07 04:01:00,
2013-02-06 22:11:00,64.0,-99.9,29.87,NNE,31,16.0,18.0,-999,-99.99,,,-99.99,,2013-02-07 04:11:00,
2013-02-06 22:22:00,65.0,-99.9,29.88,NE,41,16.0,19.0,-999,-99.99,,,-99.99,,2013-02-07 04:22:00,
2013-02-06 22:32:00,65.0,-99.9,29.88,NE,49,17.0,19.0,-999,-99.99,,,-99.99,,2013-02-07 04:32:00,
2013-02-06 22:42:00,65.0,-99.9,29.88,NE,51,17.0,19.0,-999,-99.99,,,-99.99,,2013-02-07 04:42:00,
2013-02-06 22:53:00,65.0,-99.9,29.88,NE,46,17.0,20.0,-999,-99.99,,,-99.99,,2013-02-07 04:53:00,
2013-02-06 23:02:00,65.0,-99.9,29.88,NE,46,16.0,19.0,-999,-99.99,,,-99.99,,2013-02-07 05:02:00,
2013-02-06 23:12:00,65.0,-99.9,29.88,NE,53,14.0,17.0,-999,-99.99,,,-99.99,,2013-02-07 05:12:00,
2013-02-06 23:22:00,64.0,-99.9,29.88,NE,52,14.0,16.0,-999,-99.99,,,-99.99,,2013-02-07 05:22:00,
2013-02-06 23:32:00,64.0,-99.9,29.88,NE,48,14.0,15.0,-999,-99.99,,,-99.99,,2013-02-07 05:32:00,
2013-02-06 23:43:00,64.0,-99.9,29.89,NE,49,13.0,15.0,-999,-99.99,,,-99.99,,2013-02-07 05:43:00,
2013-02-06 23:52:00,64.0,-99.9,29.88,NE,49,12.0,14.0,-999,-99.99,,,-99.99,,2013-02-07 05:52:00,